GW3031 Weather Reports


time (UTC)temp
C
wind
direction
speed
KPH
gust
KPH
rain 1hr
cm
rain 24hr
cm
rain mn
cm
humidity
%
barometer
mb
20260506004559 23 298 0.0 4.8 0.00 0.00 0.00 41 1009.3
20260506003100 24 0 0.0 3.2 0.00 0.00 0.00 40 1009.1
20260506001603 24 0 0.0 8.0 0.00 0.00 0.00 38 1009.0
20260505234602 25 40 0.0 12.9 0.00 0.00 0.00 36 1008.9
20260505233058 25 0 1.6 17.7 0.00 0.00 0.00 36 1008.7
20260505231600 25 227 0.0 11.3 0.00 0.00 0.00 37 1008.6
20260505224558 26 0 0.0 11.3 0.00 0.00 0.00 35 1008.7
20260505223100 26 0 0.0 9.7 0.00 0.00 0.00 34 1008.9
20260505221604 26 0 0.0 12.9 0.00 0.00 0.00 34 1008.7
20260505220108 27 26 0.0 9.7 0.00 0.00 0.00 34 1008.6
20260505214602 27 0 0.0 14.5 0.00 0.00 0.00 34 1008.5
20260505213058 27 0 0.0 8.0 0.00 0.00 0.00 35 1008.4
20260505211559 27 0 0.0 6.4 0.00 0.00 0.00 34 1008.6
20260505210058 27 142 1.6 17.7 0.00 0.00 0.00 34 1008.4
20260505204611 27 105 1.6 17.7 0.00 0.00 0.00 35 1008.4
20260505203107 28 227 0.0 12.9 0.00 0.00 0.00 36 1008.4
20260505201557 28 0 1.6 17.7 0.00 0.00 0.00 35 1008.3
20260505200058 28 81 0.0 16.1 0.00 0.00 0.00 34 1008.3
20260505194604 29 9 0.0 12.9 0.00 0.00 0.00 33 1008.9
20260505193100 28 154 0.0 8.0 0.00 0.00 0.00 35 1008.8
20260505191558 28 337 1.6 16.1 0.00 0.00 0.00 33 1009.1
20260505190100 29 0 3.2 16.1 0.00 0.00 0.00 33 1009.5
20260505184559 29 0 1.6 19.3 0.00 0.00 0.00 34 1009.6
20260505183108 28 114 1.6 16.1 0.00 0.00 0.00 34 1009.8
20260505181612 29 0 0.0 20.9 0.00 0.00 0.00 36 1009.9
20260505180100 29 0 0.0 8.0 0.00 0.00 0.00 34 1010.1
20260505174602 28 0 0.0 6.4 0.00 0.00 0.00 36 1010.4
20260505173100 28 0 0.0 12.9 0.00 0.00 0.00 38 1010.4
20260505171601 28 0 1.6 17.7 0.00 0.00 0.00 37 1010.6
20260505170058 28 0 0.0 6.4 0.00 0.00 0.00 39 1010.6
20260505164603 28 0 0.0 6.4 0.00 0.00 0.00 39 1010.8
20260505163100 28 0 0.0 4.8 0.00 0.00 0.00 39 1011.2
20260505161601 27 127 0.0 16.1 0.00 0.00 0.00 43 1011.3
20260505153122 26 0 0.0 6.4 0.00 0.00 0.00 45 1011.6
20260505151601 26 0 0.0 4.8 0.00 0.00 0.00 47 1011.7
20260505140108 23 0 0.0 4.8 0.00 0.00 0.00 51 1011.9
20260505130106 20 0 0.0 4.8 0.00 0.00 0.00 56 1011.7
20260505124614 18 0 0.0 6.4 0.00 0.00 0.00 58 1012.0
20260505123105 17 0 0.0 1.6 0.00 0.00 0.00 59 1011.9
20260505121609 17 0 0.0 4.8 0.00 0.00 0.00 61 1011.9
20260505120113 16 0 0.0 1.6 0.00 0.00 0.00 63 1011.9
20260505113116 15 0 0.0 8.0 0.00 0.00 0.00 63 1011.5
20260505111608 15 0 0.0 9.7 0.00 0.00 0.00 62 1011.5
20260505110110 15 0 0.0 12.9 0.00 0.00 0.00 62 1011.1
20260505101558 15 0 0.0 8.0 0.00 0.00 0.00 62 1010.9
20260505094558 15 0 0.0 3.2 0.00 0.00 0.00 62 1010.8
20260505093106 15 0 0.0 4.8 0.00 0.00 0.00 62 1010.6
20260505091559 15 0 0.0 1.6 0.00 0.00 0.00 62 1010.5
20260505090059 15 0 0.0 6.4 0.00 0.00 0.00 63 1010.4
20260505084602 15 0 0.0 4.8 0.00 0.00 0.00 64 1010.4
20260505083105 15 0 0.0 4.8 0.00 0.00 0.00 64 1010.6
20260505081600 15 0 0.0 9.7 0.00 0.00 0.00 65 1010.5
20260505080112 15 0 0.0 4.8 0.00 0.00 0.00 66 1010.4
20260505074559 15 0 0.0 4.8 0.00 0.00 0.00 67 1010.3
20260505073102 15 0 0.0 1.6 0.00 0.00 0.00 66 1010.4
20260505071601 16 0 0.0 1.6 0.00 0.00 0.00 65 1010.3
20260505070058 16 0 0.0 1.6 0.00 0.00 0.00 64 1010.2
20260505064602 16 0 0.0 3.2 0.00 0.00 0.00 63 1010.2
20260505063103 16 0 0.0 4.8 0.00 0.00 0.00 63 1010.1
20260505061559 16 0 0.0 3.2 0.00 0.00 0.00 64 1010.1
20260505060100 16 0 0.0 1.6 0.00 0.00 0.00 64 1010.2
20260505054600 16 0 0.0 1.6 0.00 0.00 0.00 64 1010.2
20260505053116 16 0 0.0 1.6 0.00 0.00 0.00 64 1010.2
20260505051600 17 0 0.0 1.6 0.00 0.00 0.00 63 1010.2
20260505050110 17 0 0.0 1.6 0.00 0.00 0.00 62 1010.2
20260505041600 17 0 0.0 3.2 0.00 0.00 0.00 60 1010.4
20260505040100 17 0 0.0 4.8 0.00 0.00 0.00 59 1010.4
20260505034618 18 0 0.0 1.6 0.00 0.00 0.00 58 1010.3
20260505033107 18 0 0.0 1.6 0.00 0.00 0.00 58 1010.3
20260505031559 18 0 0.0 3.2 0.00 0.00 0.00 56 1010.3
20260505024600 18 0 0.0 3.2 0.00 0.00 0.00 54 1010.1
20260505023103 19 0 0.0 1.6 0.00 0.00 0.00 53 1010.1
20260505021600 20 0 0.0 4.8 0.00 0.00 0.00 52 1010.2
20260505020106 20 0 0.0 4.8 0.00 0.00 0.00 51 1010.1
20260505014559 20 0 0.0 8.0 0.00 0.00 0.00 50 1010.0
20260505013102 20 0 0.0 1.6 0.00 0.00 0.00 50 1009.8
20260505011612 20 0 0.0 3.2 0.00 0.00 0.00 50 1009.5
20260505010101 20 0 0.0 1.6 0.00 0.00 0.00 49 1009.3